| time (UTC) | temp F | wind direction | speed knots | gust knots | rain 1hr in | rain 24hr in | rain mn in | humidity % | barometer mb |
| 20260507054015 | 47 | 266 | 1.7 | 5.2 | 0.00 | 0.51 | 0.02 | 99 | 1011.0 |
| 20260507050059 | 47 | 262 | 2.6 | 9.6 | 0.01 | 0.51 | 0.02 | 99 | 1010.7 |
| 20260507042045 | 48 | 233 | 0.9 | 5.2 | 0.01 | 0.50 | 0.01 | 99 | 1010.0 |
| 20260507034032 | 49 | 248 | 0.9 | 3.5 | 0.00 | 0.48 | 0.00 | 99 | 1009.9 |
| 20260507030018 | 49 | 228 | 0.9 | 3.5 | 0.00 | 0.48 | 0.00 | 99 | 1009.9 |
| 20260507022105 | 49 | 261 | 0.9 | 3.5 | 0.00 | 0.48 | 0.00 | 99 | 1009.5 |
| 20260507014051 | 49 | 261 | 5.2 | 11.3 | 0.00 | 0.48 | 0.00 | 99 | 1009.5 |
| 20260507010037 | 49 | 260 | 6.1 | 12.2 | 0.00 | 0.48 | 0.00 | 99 | 1009.4 |
| 20260507002023 | 50 | 270 | 0.0 | 3.5 | 0.00 | 0.48 | 0.00 | 99 | 1009.2 |
| 20260506234109 | 49 | 0.0 | 0.0 | 0.00 | 0.48 | 0.00 | 99 | 1009.3 | |
| 20260506230056 | 49 | 0.0 | 0.0 | 0.00 | 0.48 | 0.00 | 99 | 1009.1 | |
| 20260506222042 | 50 | 270 | 0.0 | 3.5 | 0.00 | 0.48 | 0.00 | 99 | 1008.8 |
| 20260506214029 | 50 | 0.0 | 0.0 | 0.09 | 0.48 | 0.48 | 99 | 1008.8 | |
| 20260506210015 | 50 | 293 | 0.0 | 1.7 | 0.31 | 0.47 | 0.47 | 99 | 1008.6 |
| 20260506202100 | 51 | 272 | 3.5 | 9.6 | 0.17 | 0.33 | 0.33 | 99 | 1009.0 |
| 20260506194046 | 52 | 0.0 | 0.0 | 0.00 | 0.17 | 0.17 | 99 | 1007.2 | |
| 20260506190033 | 52 | 303 | 1.7 | 3.5 | 0.09 | 0.17 | 0.17 | 99 | 1007.4 |
| 20260506174105 | 57 | 0.0 | 0.0 | 0.07 | 0.59 | 0.07 | 98 | 1006.3 | |
| 20260506170051 | 61 | 50 | 1.7 | 3.5 | 0.00 | 0.54 | 0.00 | 77 | 1005.9 |
| 20260506162038 | 65 | 294 | 1.7 | 3.5 | 0.00 | 0.54 | 0.00 | 69 | 1005.8 |
| 20260506154054 | 63 | 7 | 0.9 | 3.5 | 0.00 | 0.54 | 0.00 | 74 | 1006.3 |
| 20260506150040 | 63 | 245 | 2.6 | 5.2 | 0.00 | 0.54 | 0.00 | 73 | 1006.5 |
| 20260506142025 | 63 | 266 | 2.6 | 6.1 | 0.00 | 0.54 | 0.00 | 72 | 1006.5 |
| 20260506134112 | 65 | 333 | 2.6 | 7.0 | 0.00 | 0.54 | 0.00 | 69 | 1006.7 |
| 20260506130058 | 64 | 276 | 1.7 | 5.2 | 0.00 | 0.54 | 0.00 | 72 | 1007.1 |
| 20260506122044 | 62 | 248 | 1.7 | 3.5 | 0.00 | 0.54 | 0.00 | 75 | 1007.6 |
| 20260506114029 | 62 | 241 | 2.6 | 7.0 | 0.00 | 0.54 | 0.00 | 74 | 1007.8 |
| 20260506110015 | 61 | 174 | 3.5 | 11.3 | 0.00 | 0.54 | 0.00 | 77 | 1008.2 |
| 20260506102101 | 59 | 171 | 0.9 | 5.2 | 0.00 | 0.54 | 0.00 | 81 | 1008.3 |
| 20260506094047 | 57 | 248 | 4.3 | 11.3 | 0.00 | 0.54 | 0.00 | 86 | 1008.5 |
| 20260506090034 | 55 | 273 | 4.3 | 7.8 | 0.00 | 0.54 | 0.00 | 86 | 1008.4 |
| 20260506082020 | 56 | 271 | 5.2 | 13.0 | 0.00 | 0.54 | 0.00 | 89 | 1008.3 |
| 20260506062037 | 51 | 268 | 4.3 | 9.6 | 0.00 | 0.54 | 0.00 | 99 | 1007.9 |